braxton's sites:

title views votes rating creation
?Nigga Stole My Cat 2,771 19 (3.63)  2007-12-27
?The answer is Not 736 6 (2.50)  2007-12-27
?(nsfw) Pootie Tang stole my bike 1,373 8 (2.75)  2007-12-27
?Sonny Bono's child of incest wins the Showc... 1,344 9 (4.00)  2007-12-28
?lol 752 6 (2.50)  2007-12-28
?ASIAN WHORE HAS TURTLE POWER 831 12 (3.17)  2007-12-28
?ASIAN WHORE HATES JEWS 1,227 11 (2.64)  2007-12-28
?ASIAN WHORE LIKES TACOS 759 10 (2.60)  2007-12-28
?You have chosen wisely 4,788 11 (3.64)  2007-12-29
?Chinese people eat penis 1,388 14 (3.14)  2007-12-29
?Ted Danson stole my race 1,493 34 (3.97)  2007-12-29
?Eric Clapton...close your window 1,912 17 (1.76)  2007-12-30
?Ted Danson says hello 866 15 (3.93)  2007-12-30
?Ted Danson is fighting the power 718 11 (3.55)  2007-12-31
?Ted Danson invented jazz 872 9 (3.00)  2007-12-31
?Nigga stole my baby 2,410 9 (2.00)  2008-01-01
?Ted Danson epic evolution maneuver 1,575 22 (4.00)  2008-01-01
?Ted Danson epic procreation maneuver 895 15 (3.20)  2008-01-03
?Hillary's revenge 1,073 9 (3.00)  2008-01-06
?OMFG Obama 2,116 17 (3.29)  2008-01-07
?Nobody can kick my ass 891 9 (3.56)  2008-01-07
?Full House's Stephanie's confession 1,505 24 (3.04)  2008-01-07
?Ted Danson Judgement Day 764 9 (3.44)  2008-01-08
?Ninja Scroll's Jubei vs. Michael J. Fox 740 5 (3.40)  2008-01-08
?Danson vs. Connery (Refresh) 633 11 (2.36)  2008-01-09
?(nsfw) Danson is all, all is Him 885 8 (3.00)  2008-01-11
?The coolest kid you knew on the short bus 1,013 15 (2.80)  2008-01-12
?Peppy Hare is invading Navy Waters 998 9 (2.22)  2008-01-13
?(nsfw) Terrell Owens actin' like a bitch 1,565 11 (3.09)  2008-01-14
?War, Famine, Conquest, Death, Cowabunga 380 9 (2.56)  2008-01-14
?Pump you up 517 5 (3.00)  2008-01-16
?2 Marshmallows do Snow White during a Thunders... 697 10 (3.50)  2008-01-16
?(nsfw) YTMND user's sister vs. Black man 952 10 (3.50)  2008-01-16
?Danson vs. Cruise who is truly God? 498 5 (3.40)  2008-01-17
?Crop your photos 1,103 27 (4.00)  2008-01-24
?Uncle Phil Works his ass off 526 6 (2.83)  2008-01-25
?Hillary Clinton will be our next President 888 12 (2.67)  2008-01-27
?(nsfw) My Drunk Wife 10,228 127 (4.51)  2008-02-10
?Is this your baby? 622 4 (3.00)  2008-02-12
?Tom Brady is Beauty 791 4 (3.25)  2008-02-12
?(nsfw) I vote for Obama because 1,889 9 (3.67)  2008-02-12
?Ben from Short Circuit beats his wife 924 9 (2.22)  2008-02-13
?I found your balls 815 12 (3.58)  2008-02-13
?My Drunk Wife Part 2 5,151 85 (4.24)  2008-03-17
?Eight Belles 531 7 (3.00)  2008-05-05
?Iron Man given go ahead for sequel 788 12 (2.25)  2008-05-05
?Heidi Montag Sex Tape 1,039 5 (2.80)  2008-05-05
?Picard sexz Counselor Troy 1,104 10 (2.60)  2008-05-06
?Mila Kunis really likes milkshakes 1,196 11 (2.73)  2008-05-06
?Metal Gear VS. GTA4 709 13 (1.77)  2008-05-06
?McMuffin 1,837 11 (3.00)  2008-05-07
?Dewey Duck gets a drug problem 679 10 (3.50)  2008-05-07
?Miley Cyrus vs. Ninja 1,631 8 (2.00)  2008-05-07
?5 DAYS LATER NEVER FORGET 740 7 (2.43)  2008-05-08
?4 years ago NEVER FORGET 679 9 (2.78)  2008-05-08
?alphabetz and drugz 1,065 14 (3.86)  2008-05-09
?See N Say 1,929 37 (4.19)  2008-05-10
?Soft brain is perfect for crushing 589 8 (3.50)  2008-05-11
?(nsfw) Renee Zellweger vs Sarah Jessica Parker 16,082 266 (3.50)  2008-05-28
?Hulk Kok 1,023 13 (4.15)  2008-05-29
?(nsfw) My Drunk Wife wants a divorce 13,684 180 (3.79)  2008-05-31
?Indiana Jones and the Temple of YTMND! 722 13 (2.38)  2008-05-31
?Indiana Jones and the magical forest 717 14 (2.57)  2008-05-31
?Beheading Heidi Montag 1,275 14 (3.64)  2008-05-31
?Lester and All-Man's Day Off 5,879 78 (4.26)  2008-05-31
?Lester and All-Man Night on the Town 3,916 45 (4.27)  2008-06-05
?McCain's Secret Identity 877 12 (3.58)  2008-06-07
?Road Raging 818 15 (3.47)  2008-06-07
?KHOCKTMND 571 13 (3.00)  2008-06-08
?Pushing your button 729 8 (4.13)  2008-06-08
?Custer's Revenge 5,532 34 (4.32)  2008-06-15
?Harry Potter and the Best Fad Ever 2,329 19 (3.89)  2008-06-16
?Small Brown Men 579 5 (3.80)  2008-06-26
?you know why you didn't see a sign? 2,199 35 (4.29)  2008-06-29
?(nsfw) fyrestorm vs tits 17,600 281 (3.99)  2008-08-19
?John Cusack in... Eat Anything 7,213 33 (4.12)  2008-08-20
?Another site about tits 7,970 101 (3.93)  2008-08-22
?Bill Kurtis finds the Internet 5,773 63 (3.59)  2008-08-25
?(nsfw) Sparkles 4,064 144 (4.03)  2008-09-05
?Moon Man vs. All Man 2,494 79 (3.72)  2008-09-21
?1987 Fleer 2,584 53 (3.36)  2008-10-14
?Venus in Spurs 2,003 49 (3.29)  2008-10-15
?(nsfw) Lester and All Man Vote 4,230 148 (4.05)  2008-10-22
?American People 2,641 57 (3.81)  2008-10-31
?Am I Still Featured? 862 11 (3.36)  2008-12-05
?Braxton is no longer featured 974 34 (3.68)  2008-12-05
?Shoe Jokes 1,279 22 (3.86)  2008-12-15
?Braxton has an answer for Max 1,560 45 (4.02)  2008-12-30
?MICROPHONETMND: Feedback 1,008 33 (4.03)  2009-02-11
?AMFSTFU 3,853 21 (3.76)  2009-02-14
?Lester and All Man in 2012 4,203 51 (4.16)  2009-02-26
?Hey Man Nice Pez 2,910 22 (4.18)  2009-05-25
?Elastic Snap Hole of the Love Bear I'm Late ... 1,210 17 (3.82)  2009-07-05
?The Final 2 Users of YTMND 848 14 (3.29)  2009-07-05
?(nsfw) Words are Important 1,867 21 (4.29)  2009-07-05
?5509 Chestnut Street 1,169 10 (4.50)  2009-07-15
?TOURNEY3: DramamarD 972 14 (4.00)  2009-07-16
?(nsfw) Walter Cronkite's Last Skeet 2,716 26 (4.08)  2009-07-17
?YteamND Collab: Lester's Room 1,047 20 (4.20)  2009-07-21
?TournamenTMND3: LOSERS BRACKET 1,228 32 (4.06)  2009-07-23
?Emma and Steph 6,502 102 (3.89)  2009-07-25
?Choose the new Xanax campaign billboard 1,155 19 (4.16)  2009-09-15
?(nsfw) Max and Friends Relax.avi 2,301 46 (4.11)  2009-10-27
?Gr33n Art Nouveau 1,121 17 (3.59)  2009-12-12
?My Drunk Ex-Wife 4,013 23 (4.00)  2010-07-06
?My Drunk Mother in Law 7,043 49 (3.94)  2011-01-04
?My Drunk Mother in Law 2 3,706 23 (4.30)  2011-01-09